Location: Mason Neck State Park
(38.6428°N, 77.1981°W)
Time: 21:32:56
(UTC-04:00)

Cosmos 2278 Rocket - Visible Passes

Search period start: 03 September 2015 00:00
Search period end: 13 September 2015 00:00
Orbit: 841 x 846 km, 71.0° (Epoch: 02 September)

Date Brightness Start Highest point End Pass type
(mag) Time Alt. Az. Time Alt. Az. Time Alt. Az.
03 Sep 4.0 02:52:23 10° NNW 02:54:52 26° N 02:54:52 26° N visible
04 Sep 4.3 02:37:54 10° NNW 02:39:47 21° N 02:39:47 21° N visible
05 Sep 4.5 02:23:25 10° NNW 02:24:50 18° N 02:24:50 18° N visible
06 Sep 4.7 02:08:55 10° N 02:10:00 16° N 02:10:00 16° N visible
07 Sep 4.8 01:54:26 10° N 01:55:14 14° N 01:55:14 14° N visible
08 Sep 4.9 01:39:57 10° N 01:40:33 13° N 01:40:33 13° N visible
09 Sep 5.0 01:25:29 10° N 01:25:55 12° N 01:25:55 12° N visible
10 Sep 5.0 01:11:00 10° N 01:11:21 12° N 01:11:21 12° N visible
11 Sep 5.1 00:56:32 10° N 00:56:48 11° N 00:56:48 11° N visible
12 Sep 5.1 00:42:03 10° N 00:42:18 11° N 00:42:18 11° N visible
